Zurück zum Katalog

STARLINK-1453

AktivKommunikationVLEO
NORAD 45670·PAYLOAD·🇺🇸 United States

Gestartet Jun 4, 2020 von Cape Canaveral Space Force Station

Loading…

Nächste Überflüge (nächste 24 Stunden)

TLE

AktuellSource: CelesTrak SupGP

Epoche: Sep 15, 2026, 01:51 UTC

1 45670C 20035P   26258.07756944  .00460530  00000+0  74326-3 0  2587
2 45670  53.0274 153.6192 0001288 115.9703 241.5826 16.02523741    17

Verfolge STARLINK-1453 in Echtzeit mit AllMySat

Download on the App Store